Starlink 31778

operational
NORAD ID: 59602 Int'l Des: 2024-080 Owner: SPXS Country: US Constellation: starlink
LEOCIRCULAR

Starlink 31778について

説明を読み込み中...

リアルタイム位置

3D地球を読み込み中...

次回通過

高度履歴

Altitude vs Time

uPlot chart will show altitude changes over time

軌道要素

1 59602U 24080B 25304.64664097 -.00001653 00000-0 -50556-4 0 9994
2 59602 43.0024 43.5250 0001183 269.4676 90.6040 15.27585743 84838
Epoch: Oct 31, 2025 • Age: 24 hours

現在のステータス

高度 485.1 km
速度 7.63 km/s
衛星直下点 34.68°N, 174.75°E
打ち上げ日 Apr 28, 2024
運用期間 1.5 years
タイプ internet

技術仕様

分類 Payload
質量 730.00 kg
乾燥質量 700.00 kg
総質量 730.00 kg
長さ 0.30 m
直径 4.10 m
スパン 29.00 m
形状 Box + pan
製造者 SPXS
バスタイプ Starlink V2M
フェーズステータス In Orbit
所有者/国 SPXS/US

大規模コンステレーション

Loading constellations...